User: anonymous   Login
Location: 相模原市立博物館
(35.5593°N, 139.3931°E)
Time: 14:30:56
(UTC+09:00)
Language:

UKube-1 - Orbit

View from above orbital plane
View from above orbital plane
View from above satellite
View from above satellite

Ground track
Ground track

The orbit data is extracted from the following two-line orbital elements,

1 40074U 14037F   22026.59256716  .00000912  00000-0  11433-3 0  9990
2 40074  98.4018 259.7199 0005267  35.4055 324.7482 14.84853400409012
Epoch (UTC): 26 January 2022 14:13:17
Eccentricity: 0.0005267
inclination: 98.4018°
perigee height: 610 km
apogee height: 618 km
right ascension of ascending node: 259.7199°
argument of perigee: 35.4055°
revolutions per day: 14.84853400
mean anomaly at epoch: 324.7482°
orbit number at epoch: 40901

The dashed part of the orbit path shows where the satellite is in the earth's shadow,  

DLR